Date String (YYYY-MM-DD hh:mm:ss) UTC,Instrument flags,Ambient pressure (hPa),Sample flow (lpm),Bypass flow (lpm),Sample temperature (°C),Ambient temperature (°C),ASC tube jacket temperature (°C),LED temperature (°C),Box temperature (°C),Sample RH (%),Span deviation,Mass concentration (μg/m³),Mass concentration (μg/m³),Mass concentration (μg/m³)
DateTimeUTC,F1_M11,P_M11,Q1_M11,Q2_M11,T1_M11,T2_M11,T3_M11,T4_M11,T5_M11,U1_M11,ZSPAN_M11,X0_M11,X2_M11,X1_M11
2021-11-30 02:00:00,,0827.2,5.00,0.00,30.0,29.1,00.0,39.0,31.8,10.7,0000.0,0009.15,0002.00,0000.53
2021-11-30 02:01:00,,0827.2,5.00,0.00,30.0,29.1,00.0,39.0,31.8,10.7,0000.0,0009.59,0002.03,0000.52
2021-11-30 02:02:00,,0827.2,5.01,0.00,30.1,29.2,00.0,39.0,31.8,10.7,0000.0,0010.08,0002.17,0000.53
2021-11-30 02:03:00,,0827.2,4.99,0.00,30.1,29.2,00.0,39.0,31.8,10.7,0000.0,0010.49,0002.14,0000.53
2021-11-30 02:04:00,,0827.2,4.99,0.00,30.1,29.2,00.0,39.0,31.9,10.7,0000.0,0010.52,0002.24,0000.54
2021-11-30 02:05:00,,0827.2,5.01,0.00,30.1,29.2,00.0,39.0,31.9,10.7,0000.0,0010.26,0002.26,0000.54
2021-11-30 02:06:00,,0827.4,4.98,0.00,30.1,29.3,00.0,39.0,31.9,10.7,0000.0,0009.94,0002.22,0000.54
2021-11-30 02:07:00,,0827.4,5.02,0.00,30.1,29.3,00.0,39.0,31.9,10.7,0000.0,0010.02,0002.14,0000.55
2021-11-30 02:08:00,,0827.6,4.99,0.00,30.2,29.3,00.0,39.1,31.9,10.7,0000.0,0009.50,0002.14,0000.54
2021-11-30 02:09:00,,0827.2,5.01,0.00,30.2,29.3,00.0,39.1,32.0,10.7,0000.0,0009.88,0002.22,0000.56
2021-11-30 02:10:00,,0827.2,5.00,0.00,30.2,29.3,00.0,39.1,32.0,10.7,0000.0,0010.36,0002.28,0000.58
2021-11-30 02:11:00,,0827.2,4.99,0.00,30.2,29.3,00.0,39.1,32.0,10.7,0000.0,0010.20,0002.25,0000.58
2021-11-30 02:12:00,,0827.2,5.00,0.00,30.2,29.3,00.0,39.1,32.0,10.7,0000.0,0010.04,0002.23,0000.59
2021-11-30 02:13:00,,0827.2,5.00,0.00,30.2,29.3,00.0,39.1,32.0,10.7,0000.0,0009.61,0002.10,0000.59
2021-11-30 02:14:00,,0827.2,5.00,0.00,30.2,29.3,00.0,39.1,32.0,10.6,0000.0,0009.61,0002.10,0000.59
2021-11-30 02:15:00,,0827.2,5.01,0.00,30.2,29.4,00.0,39.1,32.0,10.6,0000.0,0009.86,0002.03,0000.58
2021-11-30 02:16:00,,0827.2,4.99,0.00,30.2,29.4,00.0,39.2,32.0,10.7,0000.0,0010.19,0002.02,0000.58
2021-11-30 02:17:00,,0827.2,5.01,0.00,30.3,29.4,00.0,39.2,32.0,10.7,0000.0,0010.81,0002.03,0000.59
2021-11-30 02:18:00,,0827.3,4.99,0.00,30.3,29.4,00.0,39.2,32.0,10.7,0000.0,0010.86,0002.04,0000.59
2021-11-30 02:19:00,,0827.2,5.00,0.00,30.3,29.4,00.0,39.2,32.0,10.7,0000.0,0010.74,0002.05,0000.60
2021-11-30 02:20:00,,0827.2,5.00,0.00,30.3,29.4,00.0,39.2,32.0,10.7,0000.0,0010.92,0002.12,0000.59
2021-11-30 02:21:00,,0827.2,5.00,0.00,30.3,29.4,00.0,39.2,32.0,10.7,0000.0,0011.28,0002.15,0000.60
2021-11-30 02:22:00,,0827.3,5.01,0.00,30.3,29.4,00.0,39.2,32.1,10.7,0000.0,0012.73,0002.19,0000.61
2021-11-30 02:23:00,,0827.2,4.99,0.00,30.3,29.4,00.0,39.2,32.0,10.6,0000.0,0012.59,0002.21,0000.62
2021-11-30 02:24:00,,0827.2,5.00,0.00,30.3,29.4,00.0,39.2,32.0,10.6,0000.0,0012.58,0002.20,0000.63
2021-11-30 02:25:00,,0827.2,5.01,0.00,30.3,29.4,00.0,39.2,32.1,10.6,0000.0,0012.04,0002.17,0000.62
2021-11-30 02:26:00,,0827.2,4.99,0.00,30.3,29.5,00.0,39.3,32.1,10.7,0000.0,0011.86,0002.17,0000.63
2021-11-30 02:27:00,,0827.3,5.01,0.00,30.3,29.5,00.0,39.3,32.1,10.6,0000.0,0013.42,0002.16,0000.63
2021-11-30 02:28:00,,0827.3,4.99,0.00,30.4,29.5,00.0,39.3,32.1,10.6,0000.0,0013.30,0002.20,0000.63
2021-11-30 02:29:00,,0827.2,5.00,0.00,30.3,29.4,00.0,39.3,32.1,10.6,0000.0,0013.53,0002.20,0000.64
2021-11-30 02:30:00,,0827.2,5.00,0.00,30.3,29.4,00.0,39.3,32.1,10.7,0000.0,0013.03,0002.20,0000.63
2021-11-30 02:31:00,,0827.2,4.99,0.00,30.3,29.4,00.0,39.3,32.1,10.7,0000.0,0013.14,0002.13,0000.63
2021-11-30 02:32:00,,0827.2,5.01,0.00,30.3,29.4,00.0,39.3,32.0,10.7,0000.0,0013.34,0002.07,0000.63
2021-11-30 02:33:00,,0827.2,5.00,0.00,30.3,27.8,00.0,39.3,31.6,10.7,0000.0,0012.13,0002.02,0000.62
2021-11-30 02:34:00,,0827.2,4.99,0.00,30.1,26.3,00.0,39.2,31.2,10.7,0000.0,0011.77,0001.98,0000.61
2021-11-30 02:35:00,,0827.2,5.01,0.00,30.0,26.3,00.0,39.2,31.2,10.8,0000.0,0011.68,0001.91,0000.59
2021-11-30 02:36:00,,0827.2,4.98,0.00,29.9,26.7,00.0,39.1,31.3,10.9,0000.0,0011.45,0001.90,0000.59
2021-11-30 02:37:00,,0827.2,5.00,0.00,29.8,27.1,00.0,39.0,31.3,10.9,0000.0,0011.94,0001.91,0000.59
2021-11-30 02:38:00,,0827.2,5.01,0.00,29.8,27.5,00.0,39.0,31.3,10.9,0000.0,0010.63,0001.94,0000.58
2021-11-30 02:39:00,,0827.1,5.00,0.00,29.8,27.8,00.0,39.0,31.4,10.9,0000.0,0010.06,0001.87,0000.58
2021-11-30 02:40:00,,0827.1,5.00,0.00,29.8,28.0,00.0,38.9,31.4,11.0,0000.0,0009.50,0001.81,0000.56
2021-11-30 02:41:00,,0827.2,4.99,0.00,29.8,28.2,00.0,38.9,31.4,11.0,0000.0,0010.93,0001.80,0000.56
2021-11-30 02:42:00,,0827.1,5.00,0.00,29.8,28.3,00.0,38.9,31.4,11.0,0000.0,0010.75,0001.80,0000.56
2021-11-30 02:43:00,,0827.1,5.01,0.00,29.8,28.4,00.0,38.9,31.4,10.9,0000.0,0010.02,0001.80,0000.58
2021-11-30 02:44:00,,0827.1,5.00,0.00,29.8,28.5,00.0,38.9,31.4,11.0,0000.0,0010.43,0001.76,0000.58
2021-11-30 02:45:00,,0827.1,4.99,0.00,29.8,28.5,00.0,38.9,31.4,10.9,0000.0,0010.71,0001.78,0000.58
2021-11-30 02:46:00,,0827.1,5.00,0.00,29.7,28.5,00.0,38.9,31.4,10.9,0000.0,0010.93,0001.85,0000.60
2021-11-30 02:47:00,,0827.5,5.01,0.00,29.7,28.5,00.0,38.8,31.4,10.9,0000.0,0011.15,0001.91,0000.60
2021-11-30 02:48:00,,0827.2,5.00,0.00,29.7,28.6,00.0,38.8,31.4,10.9,0000.0,0011.07,0001.94,0000.61
2021-11-30 02:49:00,,0827.1,4.99,0.00,29.7,28.6,00.0,38.8,31.4,11.0,0000.0,0011.18,0001.95,0000.61
2021-11-30 02:50:00,,0827.3,5.00,0.00,29.7,28.6,00.0,38.8,31.4,11.0,0000.0,0011.26,0001.99,0000.60
2021-11-30 02:51:00,,0827.0,5.01,0.00,29.7,28.7,00.0,38.8,31.4,11.0,0000.0,0012.76,0002.01,0000.60
2021-11-30 02:52:00,,0827.0,5.00,0.00,29.7,28.7,00.0,38.8,31.4,10.9,0000.0,0011.57,0002.01,0000.60
2021-11-30 02:53:00,,0826.9,5.00,0.00,29.7,28.7,00.0,38.8,31.5,10.9,0000.0,0011.29,0001.98,0000.59
2021-11-30 02:54:00,,0826.9,5.01,0.00,29.7,28.8,00.0,38.8,31.5,10.9,0000.0,0012.02,0002.05,0000.58
2021-11-30 02:55:00,,0827.0,5.01,0.00,29.8,28.8,00.0,38.8,31.5,10.9,0000.0,0011.71,0002.06,0000.58
2021-11-30 02:56:00,,0827.0,5.00,0.00,29.8,28.9,00.0,38.8,31.5,10.9,0000.0,0011.15,0002.04,0000.57
2021-11-30 02:57:00,,0827.0,5.00,0.00,29.8,28.9,00.0,38.8,31.5,10.9,0000.0,0011.27,0002.04,0000.56
2021-11-30 02:58:00,,0827.1,4.99,0.00,29.8,28.9,00.0,38.8,31.5,10.9,0000.0,0011.66,0002.03,0000.57
2021-11-30 02:59:00,,0827.0,5.01,0.00,29.8,28.8,00.0,38.8,31.5,10.9,0000.0,0011.38,0001.97,0000.56
